Location: Burzi?i
(45.0869°N, 16.0577°E)
Time: 11:46:58
(UTC+00:00)

USA 307 - Pass Details

Date: 29 October 2020
Orbit: 569 x 579 km, 54.0° (Epoch: 23 November)

Event Time Altitude Azimuth Distance (km) Brightness Sun altitude
Rises 17:01:31 0° 305° (NW) 2,790 7.2 -13.6°
Reaches altitude 10° 17:03:49 10° 309° (NW) 1,887 6.2 -14.0°
Maximum altitude 17:08:04 59° 29° (NNE) 668 3.0 -14.7°
Enters shadow 17:10:18 26° 100° (E) 1,146 3.9 -15.1°
